SCP
0 0 0 0 0 0 0 0 0 0 0 0 0 0 0 0 0 0 0 0 0 0 0 0 0 0 0 0 0 0 0 0 0 0 0 0 0 0 0 0 0 0 0 0 0 0 0 0 -0 -0 0 0 0 0
0 0 0 0 0 0 0 0 0 0 0 0 0 0 0 0 0 0 0 0 0 0 0 0 0 0 0 0 0 0 0 0 0 0 0 0 0 0 0 0 0 0 0 0 0 0 0 0 0 0 0 0 0 0
0 0 0 0 0 0 0 0 0 0 0 0 0 0 0 0 0 0 0 0 0 0 0 0 0 0 0 0 0 0 0 0 0 0 0 0 0 0 0 0 0 0 0 0 0 0 0 -0 0 0 0 0 0 0
0 0 0 0 0 0 0 0 0 0 0 0 0 0 0 0 0 0 0 0 0 0 0 0 0 0 0 0 0 0 0 0 0 0 0 0 0 0 0 0 0 0 0 0 0 0 0 0 0 0 0 0 0 0
0 0 0 0 0 0 0 0 0 0 0 0 0 0 0 0 0 0 0 0 0 0 0 0 0 -0 0 0 0 0 0 0 0 0 0 0 0 0 0 0 0 0 0 0 0 0 0 0 0 0 0 0 0 0
0 0 0 0 0 0 0 0 0 0 0 0 0 0 0 0 0 0 0 0 0 0 0 0 0 0 0 0 0 0 0 0 0 0 0 0 0 0 0 0 0 0 0 0 0 0 0 0 0 0 0 0 0 0
0 0 0 0 0 0 0 0 0 0 0 0 0 0 0 0 0 0 0 0 0 0 0 0 0 0 0 0 0 0 0 0 0 0 0 0 0 0 0 0 0 0 0 0 0 0 0 0 0 0 0 0 0 0
0 0 0 0 0 0 0 0 0 0 0 0 0 0 0 0 0 0 0 -0 0 0 0 0 0 0 0 0 0 0 0 0 0 0 0 0 0 0 0 0 0 0 0 0 0 0 0 0 0 0 0 0 0 0
0 0 0 0 0 0 0 0 0 0 0 0 0 0 0 0 0 0 0 0 0 0 0 0 0 0 0 0 0 0 0 0 0 0 0 0 0 0 0 0 0 0 0 0 0 0 0 0 0 0 0 0 0 0
0 0 0 0 0 0 0 0 0 0 0 0 0 0 0 0 0 0 0 0 0 0 0 0 0 0 0 0 0 0 0 0 0 0 0 0 0 0 0 0 0 0 0 0 0 0 0 0 0 0 0 0 0 0
0 0 0 0 0 0 0 0 0 0 0 0 0 0 0 0 0 0 0 0 0 0 0 0 0 0 0 0 0 0 0 0 0 0 0 0 0 0 0 0 0 0 0 0 0 0 0 0 0 0 0 -0 -0 0
0 0 0 0 0 0 0 0 0 0 0 0 0 0 0 0 0 0 0 0 0 0 0 0 0 0 0 0 0 0 0 0 0 0 0 0 0 0 0 0 0 0 0 0 0 0 0 0 0 -0 -0 -0 0 0
0 0 0 0 0 0 0 0 0 0 0 0 0 0 0 0 0 0 0 0 0 0 0 0 0 0 0 0 0 0 0 0 0 0 0 0 0 0 0 0 0 0 0 0 0 0 0 0 0 -0 -0 -0 0 0
0 0 0 0 0 0 0 0 -0 0 0 0 0 0 0 0 0 0 0 0 0 0 0 0 0 0 0 0 0 0 0 0 0 0 0 0 0 0 0 0 0 0 0 0 0 0 0 0 0 -0 -0 0 0 0
0 0 0 0 0 -0 0 -0 0 0 0 0 0 0 0 0 0 0 0 0 0 0 0 0 0 0 0 0 0 0 0 0 0 0 0 0 0 0 -0 0 -0 0 -0 -0 0 0 0 0 0 0 0 0 0 0
0 0 -0 -0 -0 -0 -0 0 0 0 0 0 0 0 0 0 0 0 0 -0 -0 0 0 0 -0 0 0 0 0 0 0 0 0 0 0 -0 -0 -0 0 0 0 -0 -0 -0 0 0 0 0 0 0 0 0 0 0
0 0 0 0 -0 -0 0 0 0 0 0 0 0 0 0 0 0 0 0 0 0 0 0 0 0 0 0 0 0 0 0 0 0 0 0 -0 0 0 0 0 -0 -0 -0 0 0 0 0 0 0 0 0 0 0 0
0 0 -0 -0 0 0 0 0 0 0 0 0 0 0 0 0 0 0 0 0 0 0 0 -0 0 0 0 0 0 0 0 0 -0 -0 0 0 0 0 -0 -0 -0 -0 0 0 0 0 0 0 0 0 0 0 0 0
-0 -0 -0 -0 0 0 -0 -0 0 0 0 0 0 0 0 0 0 0 0 0 0 0 0 0 0 0 0 0 0 0 0 0 0 0 -0 -0 0 0 0 -0 -0 -0 0 -0 0 0 0 0 0 0 0 0 0 0
-0 -0 -0 -0 0 0 -0 -0 -0 -0 -0 -0 -0 -0 -0 0 0 0 0 0 0 0 0 0 0 0 0 0 0 0 0 0 0 0 0 0 0 0 -0 -0 -0 0 0 0 0 -0 0 0 0 0 0 0 0 0
0 0 0 0 0 0 0 -0 0 0 0 0 0 0 0 -0 -0 -0 -0 -0 -0 0 0 0 0 0 0 0 0 0 0 0 0 0 -0 -0 0 -0 -0 -0 0 0 -0 -0 0 0 0 -0 0 0 0 0 0 0
0 -0 0 0 0 -0 -0 -0 -0 -0 0 0 -0 -0 0 0 -0 -0 -0 -0 0 -0 0 0 0 0 0 0 0 0 0 0 0 -0 -0 0 -0 -0 -0 -0 0 0 -0 -0 0 -0 0 0 0 0 0 0 0 0
0 0 0 0 0 0 0 0 0 0 0 0 0 0 0 0 0 -0 -0 -0 -0 0 0 -0 -0 0 0 0 -0 0 -0 -0 -0 -0 0 -0 -0 -0 -0 0 0 -0 0 -0 -0 -0 0 -0 -0 0 0 0 0 0
0 0 0 0 0 0 0 0 0 0 0 0 0 0 -0 -0 0 -0 -0 -0 -0 0 -0 -0 -0 -0 0 0 -0 -0 0 0 0 -0 -0 -0 -0 -0 0 0 -0 -0 -0 -0 -0 0 0 -0 -0 0 0 0 0 0
0 0 0 0 0 0 0 0 0 0 0 -0 -0 0 0 -0 -0 0 -0 0 0 0 -0 -0 -0 0 0 0 -0 0 0 -0 -0 -0 -0 -0 -0 -0 -0 -0 0 0 -0 -0 -0 -0 -0 -0 -0 0 0 0 0 0
0 0 0 0 0 0 0 0 0 0 0 0 0 0 0 0 0 -0 -0 -0 -0 -0 0 0 0 0 0 0 -0 0 -0 -0 -0 0 0 -0 0 0 -0 0 0 0 -0 -0 -0 -0 -0 -0 -0 -0 0 0 0 0
0 0 0 0 0 0 0 0 0 0 0 0 0 0 0 0 0 0 0 0 -0 -0 -0 0 0 0 0 0 0 -0 -0 -0 -0 0 -0 -0 -0 0 -0 -0 0 0 -0 -0 -0 -0 -0 -0 -0 -0 -0 -0 0 0
0 0 0 0 0 0 0 0 0 0 0 0 0 0 0 0 0 0 0 -0 0 -0 0 0 0 0 0 0 0 0 0 -0 0 0 0 0 -0 -0 0 -0 0 -0 -0 -0 -0 -0 -0 -0 -0 -0 -0 0 0 0
0 0 0 0 0 0 0 0 0 0 0 0 0 0 0 0 0 0 0 0 0 0 0 0 0 0 0 0 0 0 0 0 0 0 0 0 -0 -0 -0 -0 -0 -0 -0 -0 -0 -0 -0 -0 -0 -0 0 0 0 0
0 0 0 0 0 0 0 0 0 0 0 0 -0 0 0 0 -0 0 0 0 -0 0 0 0 0 0 0 0 0 0 0 0 0 0 -0 -0 0 0 0 -0 -0 -0 -0 -0 -0 -0 -0 -0 -0 0 0 0 0 0
0 0 0 0 0 0 -0 -0 -0 -0 -0 -0 0 -0 0 0 -0 0 -0 -0 -0 0 0 0 0 0 0 0 0 0 0 0 0 -0 0 -0 -0 -0 -0 -0 -0 -0 -0 -0 -0 -0 -0 -0 -0 -0 0 0 0 0
0 0 0 0 0 0 0 0 -0 -0 -0 -0 -0 0 0 0 0 -0 -0 -0 -0 0 0 0 -0 0 -0 -0 0 0 0 0 0 0 -0 -0 -0 -0 0 -0 -0 -0 -0 0 0 -0 -0 -0 -0 -0 0 -0 0 0
0 0 0 -0 0 0 0 0 -0 -0 0 0 -0 -0 -0 -0 -0 -0 -0 -0 -0 0 -0 -0 0 0 -0 0 0 0 0 0 0 0 0 -0 -0 -0 0 -0 -0 -0 -0 -0 -0 -0 -0 -0 -0 -0 0 -0 -0 0
Wind_Speed_500mb
37 38 38 38 37 35 33 32 31 30 30 27 26 23 23 22 19 16 5 6 16 21 50 51 36 20 22 22 7 20 19 9 8 4 5 7 6 6 8 11 7 2 6 3 7 5 8 26 10 6 13 7 23 23
37 37 35 36 35 34 33 33 32 32 33 30 27 25 21 22 23 18 13 14 14 23 33 36 38 41 42 37 37 10 15 21 8 5 8 8 7 8 10 7 7 7 2 6 9 9 21 41 33 36 15 21 20 21
37 36 36 36 36 35 35 35 35 34 33 31 30 27 24 23 24 24 25 20 20 27 51 34 29 7 21 35 32 32 20 20 16 17 3 4 7 7 6 8 12 14 25 5 11 16 35 53 20 18 24 30 25 30
37 37 38 38 38 38 37 34 33 33 32 30 29 28 25 24 24 26 28 16 11 14 13 20 26 19 19 17 36 44 44 35 29 19 17 5 3 16 6 9 17 13 18 13 18 26 29 26 34 20 19 26 28 23
34 35 36 36 37 35 34 31 27 26 24 27 26 26 23 22 23 27 30 27 24 18 11 38 63 41 29 23 31 41 40 33 23 10 7 6 5 11 14 10 19 16 10 7 12 27 20 32 38 38 38 31 37 18
36 33 31 26 25 23 23 23 23 22 23 24 23 23 20 20 16 17 8 5 20 33 13 7 32 60 47 46 48 58 43 41 36 15 9 13 33 14 6 8 21 13 38 39 25 47 48 36 29 35 31 30 34 20
32 28 26 25 23 22 23 22 22 19 22 24 22 24 20 19 18 22 10 12 20 23 7 11 13 18 35 22 42 48 60 39 39 29 16 27 33 24 6 22 36 52 65 71 58 32 36 39 42 41 45 40 35 33
30 28 26 26 26 26 24 24 22 20 17 17 17 17 18 17 29 48 38 27 14 11 11 5 9 21 27 19 16 34 38 46 35 24 12 15 16 23 11 40 64 61 68 64 20 22 32 34 33 38 38 47 49 31
34 31 28 25 29 31 28 25 22 18 17 16 16 12 16 22 16 20 14 19 27 23 8 9 5 8 13 20 27 8 9 3 10 7 19 13 8 14 19 38 53 51 49 4 25 23 24 30 34 42 49 44 48 51
35 34 29 27 25 23 23 24 24 19 18 16 10 8 11 15 12 11 7 18 20 17 18 11 26 13 18 23 5 9 9 5 6 12 17 13 22 51 53 63 60 48 20 4 17 18 21 27 36 47 51 50 49 46
32 32 31 29 26 24 22 21 23 21 20 17 12 13 16 11 10 13 9 15 18 7 17 28 53 30 36 16 10 14 4 6 6 9 17 7 6 22 53 31 47 17 11 9 4 15 21 27 35 45 54 51 51 55
32 36 35 31 28 26 24 23 24 28 19 16 13 13 15 9 9 8 7 9 11 11 25 18 36 45 25 23 11 7 6 5 10 8 5 6 1 29 28 29 30 13 23 34 25 27 32 37 42 46 55 49 48 29
33 33 30 30 30 30 29 28 30 28 30 28 5 7 4 8 8 11 13 9 9 14 17 32 13 25 23 13 8 6 7 8 15 5 7 4 20 24 24 23 27 13 23 38 41 38 41 48 43 44 53 43 35 23
25 27 30 31 31 29 29 32 33 30 22 16 14 8 11 10 12 12 15 15 18 26 36 16 23 10 7 9 7 7 10 5 7 7 5 9 30 18 13 19 24 31 30 34 36 37 36 41 48 48 45 28 18 27
26 27 29 31 30 31 29 32 34 37 23 13 13 10 16 28 34 26 12 13 19 23 20 3 2 5 3 4 5 7 5 8 9 5 3 9 12 11 4 12 25 30 27 27 26 27 31 34 31 34 27 22 22 25
22 24 31 26 27 26 29 32 36 40 12 13 14 10 27 20 22 28 18 8 11 14 15 4 4 3 2 5 10 13 7 7 5 8 8 16 14 15 6 16 26 31 29 31 28 27 25 25 23 18 17 24 26 29
19 22 16 16 24 25 28 33 30 18 17 12 15 32 37 41 31 35 20 13 6 11 4 3 4 12 10 4 7 6 3 6 16 28 24 6 7 12 7 16 19 26 21 23 25 21 22 17 19 14 14 28 30 29
23 18 21 24 21 28 33 36 20 14 14 22 15 27 35 44 40 29 32 24 17 13 10 8 9 6 6 5 1 6 8 16 15 23 14 13 10 13 16 26 42 36 23 27 17 10 11 3 3 6 12 7 2 16
16 13 7 25 39 29 15 12 10 8 22 23 35 42 43 32 34 38 43 40 31 29 13 10 9 5 6 9 14 22 23 24 16 20 4 18 14 13 15 32 44 24 19 14 11 5 11 10 7 9 7 4 7 17
24 16 14 24 27 8 7 9 13 12 11 19 35 42 43 42 47 47 47 45 45 37 30 13 16 29 31 31 31 32 35 33 30 27 27 21 18 19 20 33 36 10 9 13 14 3 8 9 10 9 5 13 10 19
19 15 16 16 13 5 7 6 12 17 19 26 35 40 29 35 35 37 43 41 37 35 25 39 39 41 46 49 46 40 38 35 34 33 32 29 23 24 28 27 17 2 15 24 34 15 9 14 11 8 6 8 19 16
10 14 12 17 6 6 11 13 11 9 11 21 29 30 28 28 32 38 40 38 39 41 44 48 50 45 39 40 39 37 34 35 35 38 33 24 18 24 40 24 13 11 18 27 10 11 14 13 6 7 7 11 18 18
21 15 6 10 9 8 14 11 11 10 8 4 4 6 10 14 30 35 16 26 39 39 37 38 41 42 49 51 52 36 37 35 36 34 27 14 17 44 44 23 17 14 19 8 17 16 9 5 6 7 8 12 18 25
13 5 6 9 12 9 10 12 11 10 11 14 7 7 10 14 9 7 7 6 6 14 14 28 40 39 32 29 29 31 31 15 14 18 21 13 32 23 11 18 19 12 13 18 15 6 2 7 5 8 11 14 18 22
2 7 6 10 11 10 9 10 20 15 21 21 19 12 3 1 3 5 2 6 14 18 24 28 25 27 36 32 20 11 15 13 21 22 20 21 14 20 22 23 17 15 23 21 10 3 4 1 9 11 12 14 17 20
6 10 11 9 11 8 3 6 8 8 8 6 7 13 9 4 4 4 4 24 29 26 24 20 20 16 10 16 9 10 17 15 15 19 24 22 30 36 32 27 21 16 21 21 13 6 8 7 9 13 15 16 16 20
7 9 17 16 15 14 9 7 11 5 3 4 3 4 5 6 10 9 22 30 38 39 37 15 12 19 20 8 9 1 5 14 21 27 33 39 37 33 37 25 24 17 26 22 9 4 8 10 14 15 17 16 19 21
13 9 10 15 15 17 15 8 4 3 5 6 5 5 8 9 4 17 24 48 40 44 28 15 24 10 13 14 2 4 11 15 26 13 19 13 15 19 21 19 19 36 26 11 6 5 8 18 18 17 18 19 22 23
13 12 16 19 18 10 5 5 7 8 7 4 4 5 7 9 18 22 38 38 45 47 57 52 43 23 22 10 7 7 7 8 11 6 9 20 31 34 28 29 35 30 22 13 9 15 13 15 12 17 24 25 25 30
21 12 10 10 6 4 8 8 8 8 7 14 15 7 3 18 24 26 38 42 49 49 44 40 40 39 33 22 17 10 18 19 16 25 19 16 21 24 28 25 15 10 6 15 19 21 16 13 13 19 23 30 33 34
12 14 8 5 7 18 32 25 5 29 22 21 16 16 14 9 32 47 41 39 41 38 41 40 39 34 31 38 36 30 14 5 1 8 9 11 2 28 31 23 12 8 4 9 25 22 15 12 17 23 28 31 37 40
6 5 6 6 12 15 14 3 30 23 20 17 15 11 9 8 9 22 46 44 42 43 38 38 36 33 31 36 34 33 19 13 8 9 13 12 25 30 20 13 10 4 10 28 24 20 14 15 18 25 28 34 40 43
13 15 15 17 8 13 11 16 11 9 12 8 6 14 16 12 10 24 28 39 41 37 33 32 33 33 34 36 39 33 21 17 13 3 19 23 30 34 30 16 8 9 16 24 24 19 19 22 25 33 34 38 47 51
Wind_Direction_500mb
268 267 265 264 265 270 276 280 285 290 293 296 297 301 303 303 302 298 250 49 298 282 279 278 293 306 310 283 258 318 351 11 287 252 261 277 284 307 356 350 350 343 261 291 290 302 315 353 46 20 250 303 346 10
260 261 261 264 267 268 270 274 279 283 287 291 293 295 295 295 295 293 237 220 256 255 256 272 271 257 248 248 276 282 281 317 299 11 4 340 332 316 326 283 331 303 216 248 197 228 326 345 322 324 31 12 11 349
257 259 262 263 264 266 271 275 277 280 284 288 291 291 290 287 287 284 276 283 304 299 297 274 287 287 300 268 249 240 254 260 278 349 126 261 279 354 294 294 345 330 7 337 351 341 316 307 3 15 5 343 330 344
258 258 261 263 264 267 269 272 274 277 280 281 283 284 285 283 281 280 280 261 237 287 271 285 307 259 237 254 225 231 251 233 289 306 296 230 254 309 293 301 295 257 314 305 300 293 308 349 329 342 339 331 326 319
260 261 262 263 265 265 265 265 264 268 273 281 278 282 282 284 292 290 288 276 223 243 307 307 298 273 267 232 218 233 234 243 247 254 240 253 261 285 299 271 267 215 233 238 272 321 317 312 323 330 324 308 312 288
256 256 261 262 263 265 269 272 269 266 264 273 283 282 275 282 287 312 300 27 209 240 259 291 292 287 275 253 255 226 227 228 219 217 222 247 256 270 263 276 254 310 329 326 303 292 296 308 337 347 326 330 324 305
250 252 253 255 256 258 262 267 274 261 260 270 274 280 273 272 243 224 232 153 191 200 251 278 265 269 311 278 237 230 225 216 216 219 221 239 248 234 229 252 251 300 298 297 301 331 5 358 342 325 322 315 316 293
248 251 252 251 252 250 262 262 256 259 262 261 278 283 281 271 263 263 258 233 226 234 218 257 262 287 290 252 222 236 225 219 212 219 199 222 250 220 248 243 263 264 274 286 310 315 332 338 339 341 340 354 341 299
245 247 249 248 251 257 258 255 247 248 248 252 272 288 276 253 247 286 17 184 223 225 251 238 249 263 309 316 221 244 242 152 213 231 231 203 202 222 234 236 247 259 263 288 304 317 326 342 347 328 324 327 336 327
242 248 244 253 255 252 251 250 244 239 237 232 244 235 238 234 300 259 179 183 209 220 226 243 244 265 309 312 146 288 158 226 246 218 200 216 236 246 251 258 269 275 316 185 352 322 345 341 334 323 320 313 308 308
245 246 245 243 248 250 248 244 240 224 222 200 211 230 246 260 221 197 237 193 194 229 217 230 228 243 255 257 279 168 254 269 267 219 181 227 243 248 250 273 255 279 143 52 338 325 324 323 319 312 304 303 308 309
248 252 245 231 245 246 243 233 229 219 208 205 221 264 285 228 203 218 209 209 217 225 192 203 212 209 237 235 217 202 254 272 251 290 217 227 227 59 51 53 61 12 2 349 339 331 320 305 295 299 301 297 311 287
242 239 238 240 246 250 242 230 227 228 215 245 199 236 253 232 225 228 212 199 223 211 240 204 201 196 189 185 173 178 233 256 296 250 246 217 128 90 53 58 60 21 320 320 314 299 285 284 289 295 293 278 301 265
241 239 239 242 240 241 234 223 224 209 209 193 174 230 211 203 228 210 242 286 338 324 311 356 285 173 159 159 195 243 224 252 251 229 243 60 62 57 56 20 343 343 328 314 306 299 300 294 285 271 274 284 263 231
240 236 236 240 239 234 228 215 212 204 200 202 186 225 221 232 258 280 296 333 1 8 356 109 305 270 139 117 270 247 246 238 238 9 46 67 81 86 134 313 337 332 324 317 311 314 311 313 310 292 274 244 224 210
237 243 244 245 241 224 208 203 200 203 225 207 219 249 270 269 277 288 312 303 342 351 343 219 147 248 235 170 207 209 226 230 55 48 92 172 169 165 246 316 331 332 316 318 311 305 307 322 328 298 195 198 187 168
225 231 258 230 199 198 197 204 207 196 205 215 228 223 257 278 273 283 279 277 247 35 280 173 227 232 137 226 239 224 321 23 22 3 297 6 143 188 261 321 332 329 309 321 326 303 291 296 331 1 88 146 158 162
228 246 231 220 204 191 201 209 217 206 227 228 237 234 242 257 269 268 276 281 259 230 230 210 257 250 230 253 191 115 335 277 242 279 299 353 318 295 326 340 340 336 324 332 307 333 338 272 349 302 274 19 145 151
231 200 157 168 180 181 193 204 190 235 239 243 237 244 251 263 261 251 257 266 267 248 220 199 223 223 235 292 320 325 324 356 357 353 56 349 319 323 325 344 352 340 330 346 8 20 8 14 269 260 225 234 168 171
149 162 156 176 166 156 188 203 200 242 254 238 242 248 253 243 245 253 254 257 252 252 232 225 237 251 263 263 269 286 304 310 317 324 319 314 296 302 321 343 349 12 352 330 336 352 18 330 335 331 272 204 171 175
133 172 173 177 216 258 251 232 225 247 261 246 253 254 245 259 262 260 257 258 255 249 253 259 266 266 261 268 271 274 273 285 292 296 304 308 294 310 328 340 334 328 303 313 305 255 260 318 274 247 233 216 188 191
166 147 154 181 193 234 260 239 231 260 256 251 282 268 249 243 247 246 249 248 253 255 256 261 264 269 278 279 278 272 273 273 286 284 280 279 289 309 331 315 274 281 317 333 252 246 297 303 269 234 219 202 190 194
156 167 179 192 213 233 264 231 236 239 253 260 316 278 271 255 254 252 237 239 250 256 264 267 271 270 275 270 265 267 258 260 274 271 258 273 301 314 310 284 270 278 288 263 252 296 308 262 211 200 189 176 174 175
169 212 212 207 212 257 251 227 229 247 238 246 262 247 238 206 208 231 243 235 24 357 297 292 315 291 282 271 263 240 240 239 247 258 275 287 306 292 271 263 276 273 268 227 281 321 334 304 194 174 172 169 166 170
194 227 215 240 235 245 248 236 230 233 273 305 305 266 7 1 213 247 272 125 5 334 298 279 276 267 250 242 237 244 237 260 271 262 249 291 262 239 249 263 258 231 249 253 292 216 205 281 165 165 169 170 172 171
247 219 203 241 228 225 246 290 331 328 319 306 332 350 339 317 279 0 34 340 330 319 320 313 285 261 232 219 235 309 216 242 266 262 268 239 240 258 254 247 234 232 242 258 259 181 166 181 184 172 170 165 162 169
256 253 218 235 257 288 316 299 297 319 267 267 270 285 305 332 23 1 308 334 337 353 350 344 267 238 211 235 223 254 240 267 284 278 275 260 258 266 255 230 215 213 225 225 249 218 166 173 167 174 168 164 170 170
253 277 289 308 292 262 269 313 312 332 322 279 304 1 7 6 343 325 338 1 20 36 43 21 44 141 189 192 171 301 283 280 290 287 241 265 162 187 174 189 189 184 209 215 169 142 145 145 160 170 168 165 162 162
251 275 291 283 279 266 254 198 187 213 238 352 43 18 5 356 355 0 20 32 39 42 47 49 53 74 68 102 57 28 27 25 30 45 145 128 126 135 154 163 163 173 178 176 141 128 152 146 155 156 163 158 151 154
277 276 270 287 317 296 271 263 263 2 147 111 119 116 56 40 56 42 38 40 38 37 44 43 45 48 38 40 46 28 32 65 70 69 73 84 129 132 145 165 171 149 149 183 166 152 150 145 157 155 148 154 153 151
252 229 247 260 236 245 272 289 14 113 105 78 70 100 76 103 49 45 42 33 32 35 37 36 38 38 35 20 17 12 356 335 104 115 113 86 110 169 165 181 188 156 65 138 139 142 133 124 142 146 147 150 152 154
226 225 228 262 277 299 288 286 122 91 122 67 55 73 58 60 62 29 27 28 29 28 28 31 29 28 20 12 9 5 359 7 358 203 180 124 124 136 171 173 177 134 88 130 136 140 132 130 142 144 144 143 145 147
238 254 269 282 347 328 350 333 108 138 66 58 49 75 73 57 76 26 25 24 22 20 21 22 17 13 11 7 3 5 15 1 351 333 173 155 145 148 164 180 145 110 101 101 129 143 133 135 134 139 138 144 143 143
Wind_Speed_850mb
37 38 38 38 37 35 33 32 31 30 30 27 26 23 23 22 19 16 5 6 16 21 50 51 36 20 22 22 7 20 19 9 8 4 5 7 6 6 8 11 7 2 6 3 7 5 8 26 10 6 13 7 23 23
37 37 35 36 35 34 33 33 32 32 33 30 27 25 21 22 23 18 13 14 14 23 33 36 38 41 42 37 37 10 15 21 8 5 8 8 7 8 10 7 7 7 2 6 9 9 21 41 33 36 15 21 20 21
37 36 36 36 36 35 35 35 35 34 33 31 30 27 24 23 24 24 25 20 20 27 51 34 29 7 21 35 32 32 20 20 16 17 3 4 7 7 6 8 12 14 25 5 11 16 35 53 20 18 24 30 25 30
37 37 38 38 38 38 37 34 33 33 32 30 29 28 25 24 24 26 28 16 11 14 13 20 26 19 19 17 36 44 44 35 29 19 17 5 3 16 6 9 17 13 18 13 18 26 29 26 34 20 19 26 28 23
34 35 36 36 37 35 34 31 27 26 24 27 26 26 23 22 23 27 30 27 24 18 11 38 63 41 29 23 31 41 40 33 23 10 7 6 5 11 14 10 19 16 10 7 12 27 20 32 38 38 38 31 37 18
36 33 31 26 25 23 23 23 23 22 23 24 23 23 20 20 16 17 8 5 20 33 13 7 32 60 47 46 48 58 43 41 36 15 9 13 33 14 6 8 21 13 38 39 25 47 48 36 29 35 31 30 34 20
32 28 26 25 23 22 23 22 22 19 22 24 22 24 20 19 18 22 10 12 20 23 7 11 13 18 35 22 42 48 60 39 39 29 16 27 33 24 6 22 36 52 65 71 58 32 36 39 42 41 45 40 35 33
30 28 26 26 26 26 24 24 22 20 17 17 17 17 18 17 29 48 38 27 14 11 11 5 9 21 27 19 16 34 38 46 35 24 12 15 16 23 11 40 64 61 68 64 20 22 32 34 33 38 38 47 49 31
34 31 28 25 29 31 28 25 22 18 17 16 16 12 16 22 16 20 14 19 27 23 8 9 5 8 13 20 27 8 9 3 10 7 19 13 8 14 19 38 53 51 49 4 25 23 24 30 34 42 49 44 48 51
35 34 29 27 25 23 23 24 24 19 18 16 10 8 11 15 12 11 7 18 20 17 18 11 26 13 18 23 5 9 9 5 6 12 17 13 22 51 53 63 60 48 20 4 17 18 21 27 36 47 51 50 49 46
32 32 31 29 26 24 22 21 23 21 20 17 12 13 16 11 10 13 9 15 18 7 17 28 53 30 36 16 10 14 4 6 6 9 17 7 6 22 53 31 47 17 11 9 4 15 21 27 35 45 54 51 51 55
32 36 35 31 28 26 24 23 24 28 19 16 13 13 15 9 9 8 7 9 11 11 25 18 36 45 25 23 11 7 6 5 10 8 5 6 1 29 28 29 30 13 23 34 25 27 32 37 42 46 55 49 48 29
33 33 30 30 30 30 29 28 30 28 30 28 5 7 4 8 8 11 13 9 9 14 17 32 13 25 23 13 8 6 7 8 15 5 7 4 20 24 24 23 27 13 23 38 41 38 41 48 43 44 53 43 35 23
25 27 30 31 31 29 29 32 33 30 22 16 14 8 11 10 12 12 15 15 18 26 36 16 23 10 7 9 7 7 10 5 7 7 5 9 30 18 13 19 24 31 30 34 36 37 36 41 48 48 45 28 18 27
26 27 29 31 30 31 29 32 34 37 23 13 13 10 16 28 34 26 12 13 19 23 20 3 2 5 3 4 5 7 5 8 9 5 3 9 12 11 4 12 25 30 27 27 26 27 31 34 31 34 27 22 22 25
22 24 31 26 27 26 29 32 36 40 12 13 14 10 27 20 22 28 18 8 11 14 15 4 4 3 2 5 10 13 7 7 5 8 8 16 14 15 6 16 26 31 29 31 28 27 25 25 23 18 17 24 26 29
19 22 16 16 24 25 28 33 30 18 17 12 15 32 37 41 31 35 20 13 6 11 4 3 4 12 10 4 7 6 3 6 16 28 24 6 7 12 7 16 19 26 21 23 25 21 22 17 19 14 14 28 30 29
23 18 21 24 21 28 33 36 20 14 14 22 15 27 35 44 40 29 32 24 17 13 10 8 9 6 6 5 1 6 8 16 15 23 14 13 10 13 16 26 42 36 23 27 17 10 11 3 3 6 12 7 2 16
16 13 7 25 39 29 15 12 10 8 22 23 35 42 43 32 34 38 43 40 31 29 13 10 9 5 6 9 14 22 23 24 16 20 4 18 14 13 15 32 44 24 19 14 11 5 11 10 7 9 7 4 7 17
24 16 14 24 27 8 7 9 13 12 11 19 35 42 43 42 47 47 47 45 45 37 30 13 16 29 31 31 31 32 35 33 30 27 27 21 18 19 20 33 36 10 9 13 14 3 8 9 10 9 5 13 10 19
19 15 16 16 13 5 7 6 12 17 19 26 35 40 29 35 35 37 43 41 37 35 25 39 39 41 46 49 46 40 38 35 34 33 32 29 23 24 28 27 17 2 15 24 34 15 9 14 11 8 6 8 19 16
10 14 12 17 6 6 11 13 11 9 11 21 29 30 28 28 32 38 40 38 39 41 44 48 50 45 39 40 39 37 34 35 35 38 33 24 18 24 40 24 13 11 18 27 10 11 14 13 6 7 7 11 18 18
21 15 6 10 9 8 14 11 11 10 8 4 4 6 10 14 30 35 16 26 39 39 37 38 41 42 49 51 52 36 37 35 36 34 27 14 17 44 44 23 17 14 19 8 17 16 9 5 6 7 8 12 18 25
13 5 6 9 12 9 10 12 11 10 11 14 7 7 10 14 9 7 7 6 6 14 14 28 40 39 32 29 29 31 31 15 14 18 21 13 32 23 11 18 19 12 13 18 15 6 2 7 5 8 11 14 18 22
2 7 6 10 11 10 9 10 20 15 21 21 19 12 3 1 3 5 2 6 14 18 24 28 25 27 36 32 20 11 15 13 21 22 20 21 14 20 22 23 17 15 23 21 10 3 4 1 9 11 12 14 17 20
6 10 11 9 11 8 3 6 8 8 8 6 7 13 9 4 4 4 4 24 29 26 24 20 20 16 10 16 9 10 17 15 15 19 24 22 30 36 32 27 21 16 21 21 13 6 8 7 9 13 15 16 16 20
7 9 17 16 15 14 9 7 11 5 3 4 3 4 5 6 10 9 22 30 38 39 37 15 12 19 20 8 9 1 5 14 21 27 33 39 37 33 37 25 24 17 26 22 9 4 8 10 14 15 17 16 19 21
13 9 10 15 15 17 15 8 4 3 5 6 5 5 8 9 4 17 24 48 40 44 28 15 24 10 13 14 2 4 11 15 26 13 19 13 15 19 21 19 19 36 26 11 6 5 8 18 18 17 18 19 22 23
13 12 16 19 18 10 5 5 7 8 7 4 4 5 7 9 18 22 38 38 45 47 57 52 43 23 22 10 7 7 7 8 11 6 9 20 31 34 28 29 35 30 22 13 9 15 13 15 12 17 24 25 25 30
21 12 10 10 6 4 8 8 8 8 7 14 15 7 3 18 24 26 38 42 49 49 44 40 40 39 33 22 17 10 18 19 16 25 19 16 21 24 28 25 15 10 6 15 19 21 16 13 13 19 23 30 33 34
12 14 8 5 7 18 32 25 5 29 22 21 16 16 14 9 32 47 41 39 41 38 41 40 39 34 31 38 36 30 14 5 1 8 9 11 2 28 31 23 12 8 4 9 25 22 15 12 17 23 28 31 37 40
6 5 6 6 12 15 14 3 30 23 20 17 15 11 9 8 9 22 46 44 42 43 38 38 36 33 31 36 34 33 19 13 8 9 13 12 25 30 20 13 10 4 10 28 24 20 14 15 18 25 28 34 40 43
13 15 15 17 8 13 11 16 11 9 12 8 6 14 16 12 10 24 28 39 41 37 33 32 33 33 34 36 39 33 21 17 13 3 19 23 30 34 30 16 8 9 16 24 24 19 19 22 25 33 34 38 47 51
Wind_Direction_850mb
268 267 265 264 265 270 276 280 285 290 293 296 297 301 303 303 302 298 250 49 298 282 279 278 293 306 310 283 258 318 351 11 287 252 261 277 284 307 356 350 350 343 261 291 290 302 315 353 46 20 250 303 346 10
260 261 261 264 267 268 270 274 279 283 287 291 293 295 295 295 295 293 237 220 256 255 256 272 271 257 248 248 276 282 281 317 299 11 4 340 332 316 326 283 331 303 216 248 197 228 326 345 322 324 31 12 11 349
257 259 262 263 264 266 271 275 277 280 284 288 291 291 290 287 287 284 276 283 304 299 297 274 287 287 300 268 249 240 254 260 278 349 126 261 279 354 294 294 345 330 7 337 351 341 316 307 3 15 5 343 330 344
258 258 261 263 264 267 269 272 274 277 280 281 283 284 285 283 281 280 280 261 237 287 271 285 307 259 237 254 225 231 251 233 289 306 296 230 254 309 293 301 295 257 314 305 300 293 308 349 329 342 339 331 326 319
260 261 262 263 265 265 265 265 264 268 273 281 278 282 282 284 292 290 288 276 223 243 307 307 298 273 267 232 218 233 234 243 247 254 240 253 261 285 299 271 267 215 233 238 272 321 317 312 323 330 324 308 312 288
256 256 261 262 263 265 269 272 269 266 264 273 283 282 275 282 287 312 300 27 209 240 259 291 292 287 275 253 255 226 227 228 219 217 222 247 256 270 263 276 254 310 329 326 303 292 296 308 337 347 326 330 324 305
250 252 253 255 256 258 262 267 274 261 260 270 274 280 273 272 243 224 232 153 191 200 251 278 265 269 311 278 237 230 225 216 216 219 221 239 248 234 229 252 251 300 298 297 301 331 5 358 342 325 322 315 316 293
248 251 252 251 252 250 262 262 256 259 262 261 278 283 281 271 263 263 258 233 226 234 218 257 262 287 290 252 222 236 225 219 212 219 199 222 250 220 248 243 263 264 274 286 310 315 332 338 339 341 340 354 341 299
245 247 249 248 251 257 258 255 247 248 248 252 272 288 276 253 247 286 17 184 223 225 251 238 249 263 309 316 221 244 242 152 213 231 231 203 202 222 234 236 247 259 263 288 304 317 326 342 347 328 324 327 336 327
242 248 244 253 255 252 251 250 244 239 237 232 244 235 238 234 300 259 179 183 209 220 226 243 244 265 309 312 146 288 158 226 246 218 200 216 236 246 251 258 269 275 316 185 352 322 345 341 334 323 320 313 308 308
245 246 245 243 248 250 248 244 240 224 222 200 211 230 246 260 221 197 237 193 194 229 217 230 228 243 255 257 279 168 254 269 267 219 181 227 243 248 250 273 255 279 143 52 338 325 324 323 319 312 304 303 308 309
248 252 245 231 245 246 243 233 229 219 208 205 221 264 285 228 203 218 209 209 217 225 192 203 212 209 237 235 217 202 254 272 251 290 217 227 227 59 51 53 61 12 2 349 339 331 320 305 295 299 301 297 311 287
242 239 238 240 246 250 242 230 227 228 215 245 199 236 253 232 225 228 212 199 223 211 240 204 201 196 189 185 173 178 233 256 296 250 246 217 128 90 53 58 60 21 320 320 314 299 285 284 289 295 293 278 301 265
241 239 239 242 240 241 234 223 224 209 209 193 174 230 211 203 228 210 242 286 338 324 311 356 285 173 159 159 195 243 224 252 251 229 243 60 62 57 56 20 343 343 328 314 306 299 300 294 285 271 274 284 263 231
240 236 236 240 239 234 228 215 212 204 200 202 186 225 221 232 258 280 296 333 1 8 356 109 305 270 139 117 270 247 246 238 238 9 46 67 81 86 134 313 337 332 324 317 311 314 311 313 310 292 274 244 224 210
237 243 244 245 241 224 208 203 200 203 225 207 219 249 270 269 277 288 312 303 342 351 343 219 147 248 235 170 207 209 226 230 55 48 92 172 169 165 246 316 331 332 316 318 311 305 307 322 328 298 195 198 187 168
225 231 258 230 199 198 197 204 207 196 205 215 228 223 257 278 273 283 279 277 247 35 280 173 227 232 137 226 239 224 321 23 22 3 297 6 143 188 261 321 332 329 309 321 326 303 291 296 331 1 88 146 158 162
228 246 231 220 204 191 201 209 217 206 227 228 237 234 242 257 269 268 276 281 259 230 230 210 257 250 230 253 191 115 335 277 242 279 299 353 318 295 326 340 340 336 324 332 307 333 338 272 349 302 274 19 145 151
231 200 157 168 180 181 193 204 190 235 239 243 237 244 251 263 261 251 257 266 267 248 220 199 223 223 235 292 320 325 324 356 357 353 56 349 319 323 325 344 352 340 330 346 8 20 8 14 269 260 225 234 168 171
149 162 156 176 166 156 188 203 200 242 254 238 242 248 253 243 245 253 254 257 252 252 232 225 237 251 263 263 269 286 304 310 317 324 319 314 296 302 321 343 349 12 352 330 336 352 18 330 335 331 272 204 171 175
133 172 173 177 216 258 251 232 225 247 261 246 253 254 245 259 262 260 257 258 255 249 253 259 266 266 261 268 271 274 273 285 292 296 304 308 294 310 328 340 334 328 303 313 305 255 260 318 274 247 233 216 188 191
166 147 154 181 193 234 260 239 231 260 256 251 282 268 249 243 247 246 249 248 253 255 256 261 264 269 278 279 278 272 273 273 286 284 280 279 289 309 331 315 274 281 317 333 252 246 297 303 269 234 219 202 190 194
156 167 179 192 213 233 264 231 236 239 253 260 316 278 271 255 254 252 237 239 250 256 264 267 271 270 275 270 265 267 258 260 274 271 258 273 301 314 310 284 270 278 288 263 252 296 308 262 211 200 189 176 174 175
169 212 212 207 212 257 251 227 229 247 238 246 262 247 238 206 208 231 243 235 24 357 297 292 315 291 282 271 263 240 240 239 247 258 275 287 306 292 271 263 276 273 268 227 281 321 334 304 194 174 172 169 166 170
194 227 215 240 235 245 248 236 230 233 273 305 305 266 7 1 213 247 272 125 5 334 298 279 276 267 250 242 237 244 237 260 271 262 249 291 262 239 249 263 258 231 249 253 292 216 205 281 165 165 169 170 172 171
247 219 203 241 228 225 246 290 331 328 319 306 332 350 339 317 279 0 34 340 330 319 320 313 285 261 232 219 235 309 216 242 266 262 268 239 240 258 254 247 234 232 242 258 259 181 166 181 184 172 170 165 162 169
256 253 218 235 257 288 316 299 297 319 267 267 270 285 305 332 23 1 308 334 337 353 350 344 267 238 211 235 223 254 240 267 284 278 275 260 258 266 255 230 215 213 225 225 249 218 166 173 167 174 168 164 170 170
253 277 289 308 292 262 269 313 312 332 322 279 304 1 7 6 343 325 338 1 20 36 43 21 44 141 189 192 171 301 283 280 290 287 241 265 162 187 174 189 189 184 209 215 169 142 145 145 160 170 168 165 162 162
251 275 291 283 279 266 254 198 187 213 238 352 43 18 5 356 355 0 20 32 39 42 47 49 53 74 68 102 57 28 27 25 30 45 145 128 126 135 154 163 163 173 178 176 141 128 152 146 155 156 163 158 151 154
277 276 270 287 317 296 271 263 263 2 147 111 119 116 56 40 56 42 38 40 38 37 44 43 45 48 38 40 46 28 32 65 70 69 73 84 129 132 145 165 171 149 149 183 166 152 150 145 157 155 148 154 153 151
252 229 247 260 236 245 272 289 14 113 105 78 70 100 76 103 49 45 42 33 32 35 37 36 38 38 35 20 17 12 356 335 104 115 113 86 110 169 165 181 188 156 65 138 139 142 133 124 142 146 147 150 152 154
226 225 228 262 277 299 288 286 122 91 122 67 55 73 58 60 62 29 27 28 29 28 28 31 29 28 20 12 9 5 359 7 358 203 180 124 124 136 171 173 177 134 88 130 136 140 132 130 142 144 144 143 145 147
238 254 269 282 347 328 350 333 108 138 66 58 49 75 73 57 76 26 25 24 22 20 21 22 17 13 11 7 3 5 15 1 351 333 173 155 145 148 164 180 145 110 101 101 129 143 133 135 134 139 138 144 143 143